[[{"header":{"parameterUnit":"m.s-1","parameterCategory":1,"la1":30.2991,"la2":30.254,"lo1":-89.0895,"lo2":-89.0444,"dy":0.0017,"dx":0.0017,"nx":28,"ny":28,"refTime":"2025-09-06T21:00:00:Z","depth":0,"parameterNumber":2,"parameterNumberName":"U-component_of_WINDS"},"data":[0,0,0,0,0,0,0,0,0,0,0,0,0,0,0,0,0,0,0,0,0,0,0,0,0,0,0,0,0,0,0,0,0,0,0,0,0,0,0,0,0,0,0,0,0,0,0,0,0,0,0,0,0,0,0,0,0,0,-3.3197,-3.3198,0,-3.3261,-3.3261,-3.3262,-3.3158,-3.3154,-3.3151,-3.3147,-3.3214,-3.3218,-3.3224,0,0,0,0,0,0,0,0,0,0,0,0,0,-3.2987,-3.2991,-3.3197,-3.3198,-3.3199,-3.3261,-3.3261,-3.3262,-3.3158,-3.3154,-3.315,-3.3146,-3.3212,-3.3218,-3.3224,0,0,0,0,0,0,0,0,0,0,0,0,0,-3.3067,-3.2992,-3.3197,-3.3155,-3.3151,-3.326,-3.3262,-3.3263,-3.3159,-3.3154,-3.3149,-3.3144,-3.321,-3.3217,-3.3225,-3.3379,0,0,-3.3248,-3.3251,0,0,0,0,0,0,0,0,-3.3063,-3.3075,-3.316,-3.3158,-3.3154,-3.3196,-3.3211,-3.3302,-3.3161,-3.3156,-3.3147,-3.3141,-3.3212,-3.3219,-3.3243,-3.3382,-3.3385,-3.3249,-3.3253,-3.3257,-3.3259,0,0,0,0,0,0,0,-3.3057,-3.3071,-3.3222,-3.3161,-3.3158,-3.3132,-3.3138,-3.3228,-3.3214,-3.3156,-3.3149,-3.3158,-3.3209,-3.3236,-3.3244,-3.3386,-3.3249,-3.3255,-3.326,-3.3263,-3.3654,-3.366,0,0,0,0,0,0,-3.3057,-3.3068,-3.322,-3.3224,-3.3094,-3.314,-3.3146,-3.3188,-3.3212,-3.3211,-3.3162,-3.3153,-3.3225,-3.3235,-3.3246,-3.3428,-3.3257,-3.3264,-3.3268,-3.3649,-3.3656,-3.3662,0,0,0,0,0,0,-3.3053,-3.3071,-3.3218,-3.3144,-3.3161,-3.315,-3.3197,-3.3192,-3.3218,-3.3217,-3.3214,-3.3192,-3.3221,-3.3235,-3.3346,-3.3429,-3.3267,-3.3274,-3.3642,-3.3651,-3.3659,-3.3795,0,0,0,0,0,0,-3.3047,-3.307,-3.3129,-3.3146,-3.3165,-3.3318,-3.3202,-3.3197,-3.3231,-3.322,-3.3244,-3.3243,-3.3218,-3.3336,-3.3354,-3.3437,-3.328,-3.3634,-3.3646,-3.3656,-3.3783,-3.3807,-3.3828,0,0,0,0,0,-3.304,-3.3165,-3.3133,-3.3152,-3.3238,-3.3323,-3.3334,-3.3303,-3.3239,-3.3298,-3.3296,-3.3242,-3.3416,-3.3348,-3.3368,-3.3454,-3.3629,-3.3643,-3.3655,-3.3773,-3.3802,-3.3827,0,0,0,0,0,0,-3.316,-3.3167,-3.3131,-3.3266,-3.3295,-3.3305,-3.3379,-3.3336,-3.3384,-3.3371,-3.3331,-3.3337,-3.3457,-3.3466,-3.339,-3.3604,-3.3512,-3.353,-3.3595,-3.3622,-3.3644,-3.3641,-3.3287,0,0,0,0,0,-3.3201,-3.327,-3.3272,-3.3391,-3.3407,-3.3391,-3.3427,-3.34,-3.3429,-3.3441,-3.3448,-3.3478,-3.3539,-3.3581,-3.3637,-3.3782,-3.3787,-3.3851,-3.3874,-3.3892,-3.3909,-3.3986,-3.4015,-3.3705,-3.3705,-3.3705,0,0,-3.3289,-3.3301,-3.3347,-3.3415,-3.3435,-3.3507,-3.3402,-3.3483,-3.3536,-3.3453,-3.3559,-3.3565,-3.3596,-3.3725,-3.3782,-3.3736,-3.3995,-3.3909,-3.3923,-3.393,-3.4003,-3.4032,-3.4058,-3.3714,-3.3712,-3.3711,0,0,-3.3486,-3.3502,-3.3603,-3.3624,-3.3654,-3.3642,-3.3666,-3.3683,-3.3684,-3.3789,-3.3729,-3.3791,-3.3898,-3.3922,-3.3949,-3.4153,-3.4105,-3.4172,-3.429,-3.4366,-3.4391,-3.4412,-3.4486,-3.4513,-3.4188,-3.4188,-3.4188,0,-3.3592,-3.3698,-3.366,-3.3745,-3.3777,-3.3704,-3.3805,-3.3828,-3.3875,-3.3899,-3.3846,-3.3978,-3.3993,-3.4127,-3.4177,-3.42,-3.4227,-3.417,-3.439,-3.4411,-3.4431,-3.4501,-3.4528,-3.4196,-3.4195,-3.4194,-3.4194,0,-3.3827,-3.3901,-3.3978,-3.4025,-3.4065,-3.4158,-3.4135,-3.418,-3.4149,-3.4142,-3.425,-3.4266,-3.4324,-3.4353,-3.4325,-3.4483,-3.4454,-3.4396,-3.4303,-3.4469,-3.4534,-3.4561,-3.4208,-3.4205,-3.4203,-3.4201,0,0,-3.4104,-3.4127,-3.4157,-3.4177,-3.4204,-3.426,-3.4349,-3.4405,-3.4445,-3.4479,-3.4554,-3.4645,-3.4591,-3.4621,-3.4594,-3.466,-3.4822,-3.4594,-3.4594,-3.4637,-3.4998,-3.5043,-3.5075,-3.4789,-3.4794,-3.4798,-3.4996,0,-3.4301,-3.4455,-3.4423,-3.4574,-3.4642,-3.4572,-3.4649,-3.4674,-3.467,-3.4727,-3.4721,-3.4787,-3.4711,-3.4729,-3.4791,-3.4789,-3.4894,-3.4774,-3.4858,-3.4862,-3.4855,-3.5109,-3.5157,-3.5344,-3.5021,-3.5026,-3.5029,0,-3.4552,-3.4596,-3.4754,-3.4769,-3.4796,-3.4866,-3.4915,-3.497,-3.4996,-3.4988,-3.5021,-3.498,-3.5068,-3.4972,-3.5093,-3.5012,-3.5044,-3.5048,-3.5055,-3.5063,-3.4957,-3.5126,-3.5403,-3.5432,-3.5068,-3.5065,-3.5062,0,-3.4741,-3.4838,-3.4945,-3.4964,-3.4984,-3.5035,-3.5046,-3.5067,-3.5102,-3.5144,-3.5167,-3.5219,-3.5248,-3.5289,-3.5264,-3.5196,-3.5389,-3.5291,-3.5386,-3.5387,-3.5432,-3.543,-3.572,-3.545,-3.5449,-3.5449,-3.5448,0,-3.4966,-3.5065,-3.503,-3.5096,-3.5205,-3.5166,-3.5276,-3.5278,-3.5297,-3.5362,-3.5304,-3.5367,-3.5328,-3.5387,-3.5368,-3.5471,-3.5484,-3.5481,-3.5475,-3.5487,-3.5488,-3.551,-3.5497,-3.5456,-3.5455,-3.5453,-3.5452,0,-3.5196,-3.5176,-3.5288,-3.5297,-3.5301,-3.5382,-3.5389,-3.5451,-3.5441,-3.5524,-3.5541,-3.5526,-3.5593,-3.5571,-3.5642,-3.5629,-3.5761,-3.5737,-3.5753,-3.5748,-3.5844,-3.5836,-3.616,-3.6201,-3.5903,-3.5905,-3.5908,0,-3.5342,-3.5417,-3.5433,-3.5473,-3.5488,-3.5552,-3.5587,-3.5551,-3.559,-3.5625,-3.5683,-3.5744,-3.5791,-3.5901,-3.5896,-3.5951,-3.5929,-3.6038,-3.5937,-3.5947,-3.5932,-3.5929,-3.5937,-3.606,-3.6063,-3.6066,-3.6068,0,-3.5604,-3.559,-3.5643,-3.5694,-3.5738,-3.5775,-3.5808,-3.5843,-3.5809,-3.5856,-3.5923,-3.596,-3.6032,-3.6094,-3.6143,-3.6153,-3.6106,-3.6099,-3.6125,-3.614,-3.6146,-3.6145,-3.581,-3.6093,-3.6091,-3.6089,-3.6087,-3.6086,-3.5798,-3.5861,-3.5882,-3.5944,-3.5964,-3.5995,-3.6053,-3.605,-3.6105,-3.6161,-3.6136,-3.6214,-3.6236,-3.6297,-3.6314,-3.6374,-3.6332,-3.6368,-3.6377,-3.6388,-3.6401,-3.6134,-3.6382,-3.6382,-3.6381,-3.638,-3.638,0,-3.6058,-3.6067,-3.6124,-3.6171,-3.6219,-3.6168,-3.6201,-3.6245,-3.6314,-3.6339,-3.6386,-3.6463,-3.6522,-3.6522,-3.6577,-3.6625,-3.6605,-3.6641,-3.6638,-3.6641,-3.6435,-3.6408,-3.6656,-3.6656,-3.6656,-3.6656,-3.6656,-3.6656,-3.6199,-3.6304,-3.6292,-3.6406,-3.6414,-3.649,-3.6513,-3.6541,-3.6561,-3.665,-3.6698,-3.6697,-3.6711,-3.6766,-3.6818,-3.6816,-3.684,-3.6885,-3.6876,-3.6683,-3.6656,-3.663,-3.6605,-3.689,-3.689,-3.7077,-3.7079,-3.708]},{"header":{"parameterUnit":"m.s-1","parameterCategory":1,"la1":30.2991,"la2":30.254,"lo1":-89.0895,"lo2":-89.0444,"dy":0.0017,"dx":0.0017,"nx":28,"ny":28,"refTime":"2025-09-06T21:00:00:Z","depth":0,"parameterNumber":3,"parameterNumberName":"V-component_of_WINDS"},"data":[0,0,0,0,0,0,0,0,0,0,0,0,0,0,0,0,0,0,0,0,0,0,0,0,0,0,0,0,0,0,0,0,0,0,0,0,0,0,0,0,0,0,0,0,0,0,0,0,0,0,0,0,0,0,0,0,0,0,-6.4312,-6.4312,0,-6.4379,-6.4379,-6.438,-6.4281,-6.4278,-6.4274,-6.4271,-6.4335,-6.434,-6.4345,0,0,0,0,0,0,0,0,0,0,0,0,0,-6.4092,-6.4097,-6.4311,-6.4312,-6.4313,-6.4378,-6.4379,-6.438,-6.4282,-6.4278,-6.4273,-6.4269,-6.4333,-6.4339,-6.4345,0,0,0,0,0,0,0,0,0,0,0,0,0,-6.4176,-6.4098,-6.4311,-6.4272,-6.4269,-6.4378,-6.4379,-6.438,-6.4283,-6.4277,-6.4272,-6.4267,-6.4332,-6.4339,-6.4346,-6.4495,0,0,-6.4369,-6.4372,0,0,0,0,0,0,0,0,-6.4172,-6.4184,-6.4277,-6.4275,-6.4272,-6.4316,-6.4325,-6.4419,-6.4284,-6.4277,-6.4271,-6.4265,-6.4333,-6.434,-6.4363,-6.4498,-6.4501,-6.4369,-6.4374,-6.4377,-6.4379,0,0,0,0,0,0,0,-6.4166,-6.4181,-6.4338,-6.4278,-6.4275,-6.4249,-6.4255,-6.4343,-6.4333,-6.4278,-6.4271,-6.428,-6.433,-6.4357,-6.4364,-6.4502,-6.4369,-6.4376,-6.438,-6.4383,-6.476,-6.4765,0,0,0,0,0,0,-6.4166,-6.4177,-6.4336,-6.434,-6.4208,-6.4257,-6.4264,-6.4307,-6.4332,-6.4331,-6.4285,-6.4275,-6.4346,-6.4356,-6.4366,-6.4541,-6.4377,-6.4384,-6.4388,-6.4754,-6.4761,-6.4767,0,0,0,0,0,0,-6.4161,-6.4181,-6.4333,-6.4256,-6.4274,-6.4267,-6.4316,-6.4311,-6.4337,-6.4337,-6.4334,-6.4314,-6.4343,-6.4356,-6.4464,-6.4542,-6.4387,-6.4394,-6.4747,-6.4756,-6.4764,-6.4893,0,0,0,0,0,0,-6.4155,-6.418,-6.4238,-6.4259,-6.4278,-6.4432,-6.4321,-6.4316,-6.4351,-6.434,-6.4364,-6.4363,-6.434,-6.4453,-6.4471,-6.4549,-6.4399,-6.474,-6.4751,-6.4761,-6.4882,-6.4905,-6.4924,0,0,0,0,0,-6.4148,-6.4271,-6.4242,-6.4261,-6.4351,-6.4436,-6.4447,-6.442,-6.4358,-6.4415,-6.4414,-6.4362,-6.4531,-6.4465,-6.4484,-6.4566,-6.4735,-6.4748,-6.476,-6.4872,-6.49,-6.4924,0,0,0,0,0,0,-6.4259,-6.4273,-6.424,-6.4374,-6.4405,-6.442,-6.4491,-6.4451,-6.4499,-6.4486,-6.4448,-6.4454,-6.457,-6.4578,-6.4505,-6.471,-6.4622,-6.4639,-6.4701,-6.4727,-6.4748,-6.4743,-6.4406,0,0,0,0,0,-6.4299,-6.4369,-6.4377,-6.4494,-6.4511,-6.4499,-6.4535,-6.4511,-6.454,-6.4553,-6.456,-6.4589,-6.4648,-6.4688,-6.4743,-6.4882,-6.4885,-6.4948,-6.4969,-6.4987,-6.5002,-6.5074,-6.5101,-6.4808,-6.4808,-6.4808,0,0,-6.4382,-6.4399,-6.4445,-6.4517,-6.4538,-6.4609,-6.451,-6.459,-6.4642,-6.4564,-6.4667,-6.4673,-6.4703,-6.4827,-6.4882,-6.4838,-6.5083,-6.5003,-6.5017,-6.5022,-6.509,-6.5117,-6.5142,-6.4817,-6.4815,-6.4814,0,0,-6.457,-6.4591,-6.469,-6.4713,-6.4746,-6.4737,-6.4761,-6.4782,-6.4783,-6.4886,-6.4828,-6.4888,-6.4992,-6.5015,-6.504,-6.5236,-6.5188,-6.5254,-6.5366,-6.5437,-6.546,-6.548,-6.5549,-6.5574,-6.5269,-6.527,-6.527,0,-6.4669,-6.4776,-6.4745,-6.4829,-6.4861,-6.4796,-6.4894,-6.4917,-6.4967,-6.4989,-6.494,-6.5067,-6.5083,-6.521,-6.5258,-6.5281,-6.5305,-6.5251,-6.546,-6.548,-6.5498,-6.5563,-6.5589,-6.5277,-6.5277,-6.5276,-6.5275,0,-6.4895,-6.497,-6.5045,-6.5096,-6.5136,-6.5227,-6.5208,-6.5253,-6.5225,-6.5221,-6.5324,-6.5341,-6.5397,-6.5425,-6.5399,-6.5549,-6.552,-6.5466,-6.5376,-6.5534,-6.5594,-6.5619,-6.5289,-6.5286,-6.5283,-6.5282,0,0,-6.5155,-6.5187,-6.5215,-6.5237,-6.5268,-6.5324,-6.5411,-6.5467,-6.5505,-6.554,-6.5611,-6.5699,-6.5649,-6.5678,-6.5653,-6.5715,-6.5867,-6.5652,-6.5652,-6.5691,-6.6031,-6.6072,-6.6101,-6.5836,-6.5841,-6.5844,-6.6028,0,-6.5342,-6.5494,-6.5468,-6.5615,-6.5682,-6.5619,-6.5694,-6.5721,-6.5718,-6.5773,-6.577,-6.5833,-6.5762,-6.5779,-6.5838,-6.5836,-6.5935,-6.5823,-6.5899,-6.5902,-6.5893,-6.6133,-6.6176,-6.6349,-6.6052,-6.6056,-6.6059,0,-6.558,-6.5626,-6.5779,-6.5799,-6.5826,-6.5894,-6.5943,-6.5997,-6.6024,-6.6018,-6.605,-6.6013,-6.6097,-6.6007,-6.6121,-6.6045,-6.6075,-6.6079,-6.6084,-6.609,-6.599,-6.6143,-6.6404,-6.6429,-6.6096,-6.6093,-6.609,0,-6.5753,-6.5853,-6.5957,-6.5977,-6.6003,-6.6052,-6.6064,-6.6087,-6.6122,-6.6163,-6.6185,-6.6236,-6.6263,-6.6302,-6.6279,-6.6216,-6.6396,-6.6305,-6.6392,-6.6393,-6.6432,-6.643,-6.67,-6.6453,-6.6453,-6.6452,-6.6452,0,-6.5964,-6.606,-6.6035,-6.6099,-6.6204,-6.6172,-6.6276,-6.6281,-6.6301,-6.6364,-6.6312,-6.6371,-6.6337,-6.6393,-6.6375,-6.6472,-6.6485,-6.648,-6.6474,-6.6485,-6.6485,-6.6503,-6.649,-6.6459,-6.6458,-6.6456,-6.6455,0,-6.6175,-6.6162,-6.6271,-6.6287,-6.6292,-6.6369,-6.6381,-6.6439,-6.6433,-6.6512,-6.6529,-6.6518,-6.6581,-6.6562,-6.663,-6.6617,-6.6739,-6.6718,-6.6731,-6.6725,-6.6813,-6.6804,-6.7103,-6.714,-6.687,-6.6873,-6.6875,0,-6.631,-6.6382,-6.6405,-6.6444,-6.6461,-6.6524,-6.6559,-6.653,-6.6569,-6.6605,-6.6659,-6.6717,-6.6763,-6.6866,-6.6863,-6.6914,-6.6893,-6.6994,-6.69,-6.6908,-6.6893,-6.6889,-6.6895,-6.7012,-6.7016,-6.7018,-6.702,0,-6.655,-6.654,-6.6594,-6.6646,-6.669,-6.6729,-6.6763,-6.6797,-6.677,-6.6815,-6.688,-6.6915,-6.6984,-6.7042,-6.7088,-6.7098,-6.7055,-6.705,-6.7072,-6.7083,-6.7087,-6.7085,-6.678,-6.7043,-6.7041,-6.7039,-6.7038,-6.7037,-6.6726,-6.6787,-6.6813,-6.6874,-6.6897,-6.6929,-6.6985,-6.6986,-6.7039,-6.7094,-6.7073,-6.7147,-6.717,-6.7228,-6.7244,-6.73,-6.7261,-6.7294,-6.7302,-6.7311,-6.7321,-6.7079,-6.7308,-6.7307,-6.7307,-6.7306,-6.7306,0,-6.6963,-6.6976,-6.7033,-6.7083,-6.713,-6.7086,-6.7121,-6.7163,-6.7229,-6.7255,-6.7301,-6.7374,-6.743,-6.7431,-6.7483,-6.7527,-6.7508,-6.7541,-6.7537,-6.754,-6.7354,-6.7329,-6.7556,-6.7556,-6.7556,-6.7556,-6.7556,-6.7556,-6.7092,-6.7192,-6.7185,-6.7295,-6.7307,-6.738,-6.7403,-6.7432,-6.7453,-6.7537,-6.7584,-6.7585,-6.76,-6.7653,-6.7701,-6.77,-6.772,-6.7762,-6.7753,-6.7578,-6.7553,-6.753,-6.7506,-6.7767,-6.7767,-6.7934,-6.7936,-6.7937]}]]